"Period start","avg(HW err(1)/warn(2) (#))","avg(Visibility (m))","avg(Weather code (#))","avg(Precip intensity (mm/h))","min(HW err(1)/warn(2) (#))","max(HW err(1)/warn(2) (#))","std(HW err(1)/warn(2) (#))","med(HW err(1)/warn(2) (#))","min(Visibility (m))","max(Visibility (m))","std(Visibility (m))","med(Visibility (m))","min(Weather code (#))","max(Weather code (#))","std(Weather code (#))","med(Weather code (#))","min(Precip intensity (mm/h))","max(Precip intensity (mm/h))","std(Precip intensity (mm/h))","med(Precip intensity (mm/h))"
2014-07-26 00:00:00,2,9993,10,0.00,2,2,0,2,7337,13452,1853,9495,10,10,0,10,0.00,0.00,0.00,0.00
2014-07-26 00:10:00,2,7901,10,0.00,2,2,0,2,6889,9892,896,7738,10,10,0,10,0.00,0.00,0.00,0.00
2014-07-26 00:20:00,2,10097,10,0.00,2,2,0,2,7371,16458,2733,9485,10,10,0,10,0.00,0.00,0.00,0.00
2014-07-26 00:30:00,2,10120,10,0.00,2,2,0,2,6805,13283,2168,10252,10,10,0,10,0.00,0.00,0.00,0.00
2014-07-26 00:40:00,2,14125,6,0.00,2,2,0,2,10587,22715,3159,13201,0,10,5,10,0.00,0.00,0.00,0.00
2014-07-26 00:50:00,2,14466,0,0.00,2,2,0,2,6929,22012,5451,15003,0,0,0,0,0.00,0.00,0.00,0.00
2014-07-26 01:00:00,2,21180,0,0.00,2,2,0,2,13791,31231,6304,17774,0,0,0,0,0.00,0.00,0.00,0.00
2014-07-26 01:10:00,2,17515,43,0.10,2,2,0,2,13348,23068,2581,17562,0,61,22,51,0.00,0.20,0.08,0.10
2014-07-26 01:20:00,2,28855,10,0.01,2,2,0,2,15940,45431,9509,26656,0,51,20,0,0.00,0.05,0.02,0.00
2014-07-26 01:30:00,2,41130,0,0.00,2,2,0,2,33175,48594,4707,39396,0,0,0,0,0.00,0.00,0.00,0.00
2014-07-26 01:40:00,1,40670,0,0.00,0,2,1,1,23777,50000,8827,43702,0,0,0,0,0.00,0.00,0.00,0.00
2014-07-26 01:50:00,0,27296,0,0.00,0,2,1,0,9923,50000,14821,23208,0,0,0,0,0.00,0.00,0.00,0.00
2014-07-26 02:00:00,2,12416,0,0.00,0,2,1,2,8478,19802,3488,11213,0,0,0,0,0.00,0.00,0.00,0.00
2014-07-26 02:10:00,2,11986,0,0.00,2,2,0,2,7825,19526,3316,11066,0,0,0,0,0.00,0.00,0.00,0.00
2014-07-26 02:20:00,1,10765,0,0.00,0,2,1,0,6984,17624,3076,10179,0,0,0,0,0.00,0.00,0.00,0.00
2014-07-26 02:30:00,0,9197,1,0.00,0,0,0,0,6910,15357,2593,8454,0,10,3,0,0.00,0.00,0.00,0.00
2014-07-26 02:40:00,0,19481,7,0.00,0,0,0,0,9751,27067,5922,21674,0,10,5,10,0.00,0.00,0.00,0.00
2014-07-26 02:50:00,0,30088,0,0.00,0,0,0,0,13155,49172,12132,26250,0,0,0,0,0.00,0.00,0.00,0.00
2014-07-26 03:00:00,0,46562,0,0.00,0,0,0,0,38412,50000,3894,48673,0,0,0,0,0.00,0.00,0.00,0.00
2014-07-26 03:10:00,0,43885,0,0.00,0,0,0,0,35156,50000,6288,45720,0,0,0,0,0.00,0.00,0.00,0.00
2014-07-26 03:20:00,0,38075,0,0.00,0,0,0,0,28977,49095,6020,39044,0,0,0,0,0.00,0.00,0.00,0.00
2014-07-26 03:30:00,0,34657,0,0.00,0,0,0,0,21738,45626,6697,33434,0,0,0,0,0.00,0.00,0.00,0.00
2014-07-26 03:40:00,0,42045,0,0.00,0,0,0,0,30883,50000,7205,44340,0,0,0,0,0.00,0.00,0.00,0.00
2014-07-26 03:50:00,0,44230,0,0.00,0,0,0,0,20042,50000,9266,48952,0,0,0,0,0.00,0.00,0.00,0.00
2014-07-26 04:00:00,0,33815,0,0.00,0,0,0,0,9157,50000,15916,38168,0,0,0,0,0.00,0.00,0.00,0.00
2014-07-26 04:10:00,0,28548,0,0.00,0,0,0,0,11828,49950,14117,22875,0,0,0,0,0.00,0.00,0.00,0.00
2014-07-26 04:20:00,0,11744,17,0.06,0,0,0,0,5113,31941,7857,8354,0,61,27,0,0.00,0.35,0.11,0.00
2014-07-26 04:30:00,0,24913,15,0.05,0,0,0,0,5505,40485,10692,28608,0,51,23,0,0.00,0.45,0.13,0.00
2014-07-26 04:40:00,0,40854,0,0.00,0,0,0,0,7926,50000,15828,50000,0,0,0,0,0.00,0.00,0.00,0.00
2014-07-26 04:50:00,0,10266,12,0.06,0,0,0,0,4157,24160,5631,7802,0,61,24,0,0.00,0.35,0.12,0.00
2014-07-26 05:00:00,0,6971,22,0.02,0,0,0,0,1958,15011,4704,5474,10,51,19,10,0.00,0.10,0.03,0.00
2014-07-26 05:10:00,0,2307,10,0.00,0,0,0,0,1689,3073,458,2314,10,10,0,10,0.00,0.00,0.00,0.00
2014-07-26 05:20:00,0,1687,46,1.26,0,0,0,0,1310,2386,328,1612,10,61,23,61,0.00,4.25,1.53,0.73
2014-07-26 05:30:00,0,2202,10,0.00,0,0,0,0,1884,2764,285,2130,10,10,0,10,0.00,0.00,0.00,0.00
2014-07-26 05:40:00,0,2774,10,0.00,0,0,0,0,1463,4391,907,2749,10,10,0,10,0.00,0.00,0.00,0.00
2014-07-26 05:50:00,0,1829,35,0.94,0,0,0,0,1466,2312,294,1678,10,61,25,31,0.00,3.25,1.20,0.15
2014-07-26 06:00:00,0,2458,54,0.56,0,0,0,0,1958,2746,217,2502,51,61,4,52,0.10,1.65,0.45,0.47
2014-07-26 06:10:00,0,3121,46,1.00,0,0,0,0,1546,7132,1778,2194,10,52,13,52,0.00,3.20,0.94,0.75
2014-07-26 06:20:00,0,4528,10,0.00,0,0,0,0,2818,9547,1903,4032,10,10,0,10,0.00,0.00,0.00,0.00
2014-07-26 06:30:00,0,7327,9,0.00,0,0,0,0,3436,13341,3075,6109,0,10,3,10,0.00,0.00,0.00,0.00
2014-07-26 06:40:00,0,3025,10,0.00,0,0,0,0,1881,4939,799,2836,10,10,0,10,0.00,0.00,0.00,0.00
2014-07-26 06:50:00,0,3564,32,0.15,0,0,0,0,2255,6178,1210,3388,10,61,23,30,0.00,0.65,0.24,0.03
2014-07-26 07:00:00,0,2974,10,0.00,0,0,0,0,2276,3657,535,3204,10,10,0,10,0.00,0.00,0.00,0.00
2014-07-26 07:10:00,0,3794,10,0.00,0,0,0,0,3126,4679,523,3766,10,10,0,10,0.00,0.00,0.00,0.00
2014-07-26 07:20:00,0,3422,10,0.00,0,0,0,0,2979,3889,335,3326,10,10,0,10,0.00,0.00,0.00,0.00
2014-07-26 07:30:00,0,5285,10,0.00,0,0,0,0,3571,6407,980,5765,10,10,0,10,0.00,0.00,0.00,0.00
2014-07-26 07:40:00,0,6049,10,0.00,0,0,0,0,4118,9633,1753,5637,10,10,0,10,0.00,0.00,0.00,0.00
2014-07-26 07:50:00,0,6439,10,0.00,0,0,0,0,4344,10977,1913,6073,10,10,0,10,0.00,0.00,0.00,0.00
2014-07-26 08:00:00,0,4925,10,0.00,0,0,0,0,4127,6662,692,4966,10,10,0,10,0.00,0.00,0.00,0.00
2014-07-26 08:10:00,0,4478,10,0.00,0,0,0,0,3494,6233,855,4214,10,10,0,10,0.00,0.00,0.00,0.00
2014-07-26 08:20:00,0,5595,10,0.00,0,0,0,0,2844,7763,1292,5549,10,10,0,10,0.00,0.00,0.00,0.00
2014-07-26 08:30:00,0,5514,10,0.00,0,0,0,0,3378,8025,1390,5905,10,10,0,10,0.00,0.00,0.00,0.00
2014-07-26 08:40:00,0,6641,10,0.00,0,0,0,0,3555,9794,1921,7307,10,10,0,10,0.00,0.00,0.00,0.00
2014-07-26 08:50:00,0,7405,10,0.00,0,0,0,0,3898,10664,2470,8462,10,10,0,10,0.00,0.00,0.00,0.00
2014-07-26 09:00:00,0,4685,10,0.00,0,0,0,0,2097,8303,1731,4314,10,10,0,10,0.00,0.00,0.00,0.00
2014-07-26 09:10:00,0,4051,23,0.08,0,0,0,0,2404,6329,1220,3788,10,61,21,10,0.00,0.45,0.15,0.00
2014-07-26 09:20:00,0,3728,24,0.28,0,0,0,0,2340,5581,917,3507,10,61,22,10,0.00,1.20,0.45,0.00
2014-07-26 09:30:00,0,2723,52,1.44,0,0,0,0,2213,3387,361,2744,51,52,0,52,0.40,3.20,0.80,1.23
2014-07-26 09:40:00,0,2619,52,1.39,0,0,0,0,2015,3488,551,2286,51,52,0,52,0.65,2.45,0.64,1.33
2014-07-26 09:50:00,0,2420,52,1.39,0,0,0,0,1912,3047,393,2409,51,52,0,52,0.25,3.45,1.03,1.08
2014-07-26 10:00:00,0,2418,52,0.91,0,0,0,0,2013,2662,205,2535,51,52,0,52,0.35,1.75,0.39,0.90
2014-07-26 10:10:00,0,2987,51,0.32,0,0,0,0,2120,4095,483,2894,51,51,0,51,0.00,0.75,0.26,0.25
2014-07-26 10:20:00,0,3607,35,0.36,0,0,0,0,2306,5845,1348,2878,10,51,20,51,0.00,1.00,0.40,0.12
2014-07-26 10:30:00,0,1876,33,0.82,0,0,0,0,1343,2458,283,1830,10,61,23,31,0.00,2.85,0.96,0.40
2014-07-26 10:40:00,0,3677,36,0.24,0,0,0,0,1973,6074,1279,3665,10,61,21,51,0.00,1.20,0.38,0.05
2014-07-26 10:50:00,0,4025,32,0.34,0,0,0,0,2377,5507,887,4074,10,61,22,30,0.00,1.75,0.57,0.00
2014-07-26 11:00:00,0,13112,10,0.00,0,0,0,0,5036,24635,5351,13158,10,10,0,10,0.00,0.00,0.00,0.00
2014-07-26 11:10:00,0,41315,2,0.00,0,0,0,0,16542,50000,9525,44182,0,10,4,0,0.00,0.00,0.00,0.00
2014-07-26 11:20:00,0,31573,0,0.00,0,0,0,0,12351,50000,14109,29026,0,0,0,0,0.00,0.00,0.00,0.00
2014-07-26 11:30:00,0,50000,0,0.00,0,0,0,0,50000,50000,0,50000,0,0,0,0,0.00,0.00,0.00,0.00
2014-07-26 11:40:00,0,47599,0,0.00,0,0,0,0,38586,50000,3905,50000,0,0,0,0,0.00,0.00,0.00,0.00
2014-07-26 11:50:00,0,50000,0,0.00,0,0,0,0,50000,50000,0,50000,0,0,0,0,0.00,0.00,0.00,0.00
2014-07-26 12:00:00,0,50000,0,0.00,0,0,0,0,50000,50000,0,50000,0,0,0,0,0.00,0.00,0.00,0.00
2014-07-26 12:10:00,0,48483,0,0.00,0,0,0,0,37993,50000,3622,50000,0,0,0,0,0.00,0.00,0.00,0.00
2014-07-26 12:20:00,0,47805,0,0.00,0,0,0,0,32933,50000,5167,50000,0,0,0,0,0.00,0.00,0.00,0.00
2014-07-26 12:30:00,0,45295,0,0.00,0,0,0,0,28182,50000,7557,50000,0,0,0,0,0.00,0.00,0.00,0.00
2014-07-26 12:40:00,0,50000,0,0.00,0,0,0,0,50000,50000,0,50000,0,0,0,0,0.00,0.00,0.00,0.00
2014-07-26 12:50:00,0,49989,0,0.00,0,0,0,0,49888,50000,34,50000,0,0,0,0,0.00,0.00,0.00,0.00
2014-07-26 13:00:00,0,50000,0,0.00,0,0,0,0,50000,50000,0,50000,0,0,0,0,0.00,0.00,0.00,0.00
2014-07-26 13:10:00,0,50000,0,0.00,0,0,0,0,50000,50000,0,50000,0,0,0,0,0.00,0.00,0.00,0.00
2014-07-26 13:20:00,0,49834,0,0.00,0,0,0,0,48338,50000,499,50000,0,0,0,0,0.00,0.00,0.00,0.00
2014-07-26 13:30:00,0,50000,0,0.00,0,0,0,0,50000,50000,0,50000,0,0,0,0,0.00,0.00,0.00,0.00
2014-07-26 13:40:00,0,50000,0,0.00,0,0,0,0,50000,50000,0,50000,0,0,0,0,0.00,0.00,0.00,0.00
2014-07-26 13:50:00,0,50000,0,0.00,0,0,0,0,50000,50000,0,50000,0,0,0,0,0.00,0.00,0.00,0.00
2014-07-26 14:00:00,0,49884,0,0.00,0,0,0,0,48843,50000,347,50000,0,0,0,0,0.00,0.00,0.00,0.00
2014-07-26 14:10:00,0,50000,0,0.00,0,0,0,0,50000,50000,0,50000,0,0,0,0,0.00,0.00,0.00,0.00
2014-07-26 14:20:00,0,50000,0,0.00,0,0,0,0,50000,50000,0,50000,0,0,0,0,0.00,0.00,0.00,0.00
2014-07-26 14:30:00,0,50000,0,0.00,0,0,0,0,50000,50000,0,50000,0,0,0,0,0.00,0.00,0.00,0.00
2014-07-26 14:40:00,0,49975,0,0.00,0,0,0,0,49749,50000,75,50000,0,0,0,0,0.00,0.00,0.00,0.00
2014-07-26 14:50:00,0,50000,0,0.00,0,0,0,0,50000,50000,0,50000,0,0,0,0,0.00,0.00,0.00,0.00
2014-07-26 15:00:00,0,50000,0,0.00,0,0,0,0,50000,50000,0,50000,0,0,0,0,0.00,0.00,0.00,0.00
2014-07-26 15:10:00,0,50000,0,0.00,0,0,0,0,50000,50000,0,50000,0,0,0,0,0.00,0.00,0.00,0.00
2014-07-26 15:20:00,0,49882,0,0.00,0,0,0,0,49215,50000,251,50000,0,0,0,0,0.00,0.00,0.00,0.00
2014-07-26 15:30:00,0,49978,0,0.00,0,0,0,0,49783,50000,65,50000,0,0,0,0,0.00,0.00,0.00,0.00
2014-07-26 15:40:00,0,50000,0,0.00,0,0,0,0,50000,50000,0,50000,0,0,0,0,0.00,0.00,0.00,0.00
2014-07-26 15:50:00,0,50000,0,0.00,0,0,0,0,50000,50000,0,50000,0,0,0,0,0.00,0.00,0.00,0.00
2014-07-26 16:00:00,0,50000,0,0.00,0,0,0,0,50000,50000,0,50000,0,0,0,0,0.00,0.00,0.00,0.00
2014-07-26 16:10:00,0,50000,0,0.00,0,0,0,0,50000,50000,0,50000,0,0,0,0,0.00,0.00,0.00,0.00
2014-07-26 16:20:00,0,50000,0,0.00,0,0,0,0,50000,50000,0,50000,0,0,0,0,0.00,0.00,0.00,0.00
2014-07-26 16:30:00,0,50000,0,0.00,0,0,0,0,50000,50000,0,50000,0,0,0,0,0.00,0.00,0.00,0.00
2014-07-26 16:40:00,0,49980,0,0.00,0,0,0,0,49803,50000,59,50000,0,0,0,0,0.00,0.00,0.00,0.00
2014-07-26 16:50:00,0,50000,0,0.00,0,0,0,0,50000,50000,0,50000,0,0,0,0,0.00,0.00,0.00,0.00
2014-07-26 17:00:00,0,49963,0,0.00,0,0,0,0,49631,50000,111,50000,0,0,0,0,0.00,0.00,0.00,0.00
2014-07-26 17:10:00,0,50000,0,0.00,0,0,0,0,50000,50000,0,50000,0,0,0,0,0.00,0.00,0.00,0.00
2014-07-26 17:20:00,0,50000,0,0.00,0,0,0,0,50000,50000,0,50000,0,0,0,0,0.00,0.00,0.00,0.00
2014-07-26 17:30:00,0,49905,0,0.00,0,0,0,0,49046,50000,286,50000,0,0,0,0,0.00,0.00,0.00,0.00
2014-07-26 17:40:00,0,50000,0,0.00,0,0,0,0,50000,50000,0,50000,0,0,0,0,0.00,0.00,0.00,0.00
2014-07-26 17:50:00,0,50000,0,0.00,0,0,0,0,50000,50000,0,50000,0,0,0,0,0.00,0.00,0.00,0.00
2014-07-26 18:00:00,0,49368,0,0.00,0,0,0,0,45824,50000,1255,50000,0,0,0,0,0.00,0.00,0.00,0.00
2014-07-26 18:10:00,0,47753,0,0.00,0,0,0,0,39954,50000,3147,49464,0,0,0,0,0.00,0.00,0.00,0.00
2014-07-26 18:20:00,0,50000,0,0.00,0,0,0,0,50000,50000,0,50000,0,0,0,0,0.00,0.00,0.00,0.00
2014-07-26 18:30:00,0,50000,0,0.00,0,0,0,0,50000,50000,0,50000,0,0,0,0,0.00,0.00,0.00,0.00
2014-07-26 18:40:00,0,43793,0,0.00,0,0,0,0,23461,50000,8466,47368,0,0,0,0,0.00,0.00,0.00,0.00
2014-07-26 18:50:00,0,42452,0,0.00,0,0,0,0,25579,50000,8301,45510,0,0,0,0,0.00,0.00,0.00,0.00
2014-07-26 19:00:00,0,47050,0,0.00,0,0,0,0,36944,50000,4022,49072,0,0,0,0,0.00,0.00,0.00,0.00
2014-07-26 19:10:00,0,21352,4,0.00,0,0,0,0,824,48379,19864,20866,0,10,5,0,0.00,0.00,0.00,0.00
2014-07-26 19:20:00,0,25475,5,0.00,0,0,0,0,2668,48775,15678,25979,0,10,5,5,0.00,0.00,0.00,0.00
2014-07-26 19:30:00,0,27260,1,0.00,0,0,0,0,626,50000,20655,32074,0,10,3,0,0.00,0.00,0.00,0.00
2014-07-26 19:40:00,0,342,27,0.00,0,0,0,0,268,424,43,335,10,34,11,34,0.00,0.00,0.00,0.00
2014-07-26 19:50:00,0,548,34,0.00,0,0,0,0,293,909,183,551,34,34,0,34,0.00,0.00,0.00,0.00
2014-07-26 20:00:00,0,1745,33,0.00,0,0,0,0,1134,3674,710,1504,20,34,4,34,0.00,0.00,0.00,0.00
2014-07-26 20:10:00,0,20459,20,0.00,0,0,0,0,1422,50000,20858,7572,20,20,0,20,0.00,0.00,0.00,0.00
2014-07-26 20:20:00,0,50000,20,0.00,0,0,0,0,50000,50000,0,50000,20,20,0,20,0.00,0.00,0.00,0.00
2014-07-26 20:30:00,0,48876,20,0.00,0,0,0,0,43757,50000,2019,50000,20,20,0,20,0.00,0.00,0.00,0.00
2014-07-26 20:40:00,0,50000,20,0.00,0,0,0,0,50000,50000,0,50000,20,20,0,20,0.00,0.00,0.00,0.00
2014-07-26 20:50:00,0,49531,20,0.00,0,0,0,0,45311,50000,1407,50000,20,20,0,20,0.00,0.00,0.00,0.00
2014-07-26 21:00:00,0,49236,18,0.00,0,0,0,0,47721,50000,804,49428,0,20,6,20,0.00,0.00,0.00,0.00
2014-07-26 21:10:00,0,49886,0,0.00,0,0,0,0,49381,50000,230,50000,0,0,0,0,0.00,0.00,0.00,0.00
2014-07-26 21:20:00,0,48686,0,0.00,0,0,0,0,44824,50000,1889,49778,0,0,0,0,0.00,0.00,0.00,0.00
2014-07-26 21:30:00,0,49103,0,0.00,0,0,0,0,45218,50000,1674,50000,0,0,0,0,0.00,0.00,0.00,0.00
2014-07-26 21:40:00,0,48784,0,0.00,0,0,0,0,44140,50000,1843,50000,0,0,0,0,0.00,0.00,0.00,0.00
2014-07-26 21:50:00,0,49855,0,0.00,0,0,0,0,48805,50000,358,50000,0,0,0,0,0.00,0.00,0.00,0.00
2014-07-26 22:00:00,0,49259,0,0.00,0,0,0,0,46949,50000,1165,50000,0,0,0,0,0.00,0.00,0.00,0.00
2014-07-26 22:10:00,0,48992,0,0.00,0,0,0,0,44606,50000,2022,50000,0,0,0,0,0.00,0.00,0.00,0.00
2014-07-26 22:20:00,0,48984,0,0.00,0,0,0,0,43439,50000,2137,50000,0,0,0,0,0.00,0.00,0.00,0.00
2014-07-26 22:30:00,0,49116,0,0.00,0,0,0,0,45850,50000,1408,50000,0,0,0,0,0.00,0.00,0.00,0.00
2014-07-26 22:40:00,0,47257,0,0.00,0,0,0,0,34895,50000,4726,49870,0,0,0,0,0.00,0.00,0.00,0.00
2014-07-26 22:50:00,0,49138,0,0.00,0,0,0,0,42476,50000,2245,50000,0,0,0,0,0.00,0.00,0.00,0.00
2014-07-26 23:00:00,0,48466,0,0.00,0,0,0,0,41848,50000,3076,50000,0,0,0,0,0.00,0.00,0.00,0.00
2014-07-26 23:10:00,0,47665,0,0.00,0,0,0,0,35704,50000,4170,49487,0,0,0,0,0.00,0.00,0.00,0.00
2014-07-26 23:20:00,0,47118,0,0.00,0,0,0,0,38371,50000,4605,50000,0,0,0,0,0.00,0.00,0.00,0.00
2014-07-26 23:30:00,0,47721,0,0.00,0,0,0,0,43489,50000,2261,47966,0,0,0,0,0.00,0.00,0.00,0.00
2014-07-26 23:40:00,2,41217,0,0.00,2,2,0,2,29294,50000,7900,43042,0,0,0,0,0.00,0.00,0.00,0.00
2014-07-26 23:50:00,2,43789,0,0.00,2,2,0,2,31981,50000,6218,45446,0,0,0,0,0.00,0.00,0.00,0.00
